Time,TemperatureF,DewpointF,PressureIn,WindDirection,WindDirectionDegrees,WindSpeedMPH,WindSpeedGustMPH,Humidity,HourlyPrecipIn,Conditions,Clouds,dailyrainin,SoftwareType,DateUTC
2013-02-07 00:07:00,35.4,32.0,30.01,SSE,164,7.0,-999.0,86,-99.99,,,0.00,weatherlink.com 1.10,2013-02-07 06:07:00,
2013-02-07 00:22:00,35.3,32.0,30.00,South,185,6.0,-999.0,86,-99.99,,,0.00,weatherlink.com 1.10,2013-02-07 06:22:00,
2013-02-07 00:37:00,35.2,31.0,30.00,South,188,9.0,-999.0,86,-99.99,,,0.00,weatherlink.com 1.10,2013-02-07 06:37:00,
2013-02-07 00:52:00,34.8,31.0,29.98,SSW,204,4.0,-999.0,86,-99.99,,,0.00,weatherlink.com 1.10,2013-02-07 06:52:00,
2013-02-07 01:07:00,34.7,31.0,29.98,South,177,7.0,-999.0,87,-99.99,,,0.00,weatherlink.com 1.10,2013-02-07 07:07:00,
2013-02-07 01:22:00,34.6,31.0,29.99,South,171,2.0,-999.0,87,-99.99,,,0.00,weatherlink.com 1.10,2013-02-07 07:22:00,
2013-02-07 01:37:00,34.6,31.0,29.99,SSE,157,4.0,-999.0,87,-99.99,,,0.00,weatherlink.com 1.10,2013-02-07 07:37:00,
2013-02-07 01:52:00,34.6,31.0,29.98,South,177,1.0,-999.0,87,-99.99,,,0.00,weatherlink.com 1.10,2013-02-07 07:52:00,
2013-02-07 02:07:00,34.7,31.0,29.99,SSE,163,3.0,-999.0,87,-99.99,,,0.00,weatherlink.com 1.10,2013-02-07 08:07:00,
2013-02-07 02:22:00,34.8,31.0,29.99,South,185,5.0,-999.0,87,-99.99,,,0.00,weatherlink.com 1.10,2013-02-07 08:22:00,
2013-02-07 02:37:00,34.8,31.0,29.99,South,178,5.0,-999.0,87,-99.99,,,0.00,weatherlink.com 1.10,2013-02-07 08:37:00,
2013-02-07 02:52:00,34.6,31.0,30.00,South,178,2.0,-999.0,87,-99.99,,,0.00,weatherlink.com 1.10,2013-02-07 08:52:00,
2013-02-07 03:07:00,34.7,31.0,29.99,South,180,2.0,-999.0,87,-99.99,,,0.00,weatherlink.com 1.10,2013-02-07 09:07:00,
2013-02-07 03:22:00,34.8,31.0,29.98,SSE,161,2.0,-999.0,86,-99.99,,,0.00,weatherlink.com 1.10,2013-02-07 09:22:00,
2013-02-07 03:37:00,34.8,31.0,29.97,South,182,4.0,-999.0,87,-99.99,,,0.00,weatherlink.com 1.10,2013-02-07 09:37:00,
2013-02-07 03:52:00,34.8,31.0,29.97,South,177,4.0,-999.0,87,-99.99,,,0.00,weatherlink.com 1.10,2013-02-07 09:52:00,
2013-02-07 04:07:00,34.8,31.0,29.98,SSE,155,5.0,-999.0,87,-99.99,,,0.00,weatherlink.com 1.10,2013-02-07 10:07:00,
2013-02-07 04:22:00,34.8,31.0,29.97,South,169,4.0,-999.0,87,-99.99,,,0.00,weatherlink.com 1.10,2013-02-07 10:22:00,
2013-02-07 04:37:00,34.7,31.0,29.96,South,171,3.0,-999.0,87,-99.99,,,0.00,weatherlink.com 1.10,2013-02-07 10:37:00,
2013-02-07 04:52:00,34.7,32.0,29.97,SSE,165,3.0,-999.0,88,-99.99,,,0.00,weatherlink.com 1.10,2013-02-07 10:52:00,
2013-02-07 05:07:00,34.6,32.0,29.96,SE,135,1.0,-999.0,89,-99.99,,,0.00,weatherlink.com 1.10,2013-02-07 11:07:00,
2013-02-07 05:22:00,34.3,31.0,29.96,South,173,3.0,-999.0,89,-99.99,,,0.00,weatherlink.com 1.10,2013-02-07 11:22:00,
2013-02-07 05:37:00,34.3,32.0,29.95,SE,143,1.0,-999.0,90,-99.99,,,0.01,weatherlink.com 1.10,2013-02-07 11:37:00,
2013-02-07 05:52:00,34.3,32.0,29.95,ESE,118,2.0,-999.0,90,-99.99,,,0.01,weatherlink.com 1.10,2013-02-07 11:52:00,
2013-02-07 06:07:00,34.3,32.0,29.95,South,175,1.0,-999.0,90,-99.99,,,0.01,weatherlink.com 1.10,2013-02-07 12:07:00,
2013-02-07 06:22:00,34.3,32.0,29.95,SE,146,1.0,-999.0,90,-99.99,,,0.01,weatherlink.com 1.10,2013-02-07 12:22:00,
2013-02-07 06:37:00,34.4,32.0,29.96,South,173,1.0,-999.0,89,-99.99,,,0.01,weatherlink.com 1.10,2013-02-07 12:37:00,
2013-02-07 06:52:00,34.4,32.0,29.96,SSE,160,0.0,-999.0,89,-99.99,,,0.01,weatherlink.com 1.10,2013-02-07 12:52:00,
2013-02-07 07:07:00,34.5,32.0,29.96,SSE,155,0.0,-999.0,89,-99.99,,,0.01,weatherlink.com 1.10,2013-02-07 13:07:00,
2013-02-07 07:22:00,34.7,32.0,29.96,SSE,153,1.0,-999.0,89,-99.99,,,0.01,weatherlink.com 1.10,2013-02-07 13:22:00,
2013-02-07 07:37:00,34.9,32.0,29.95,SSE,153,0.0,-999.0,89,-99.99,,,0.01,weatherlink.com 1.10,2013-02-07 13:37:00,
2013-02-07 07:52:00,35.1,32.0,29.95,SSE,153,0.0,-999.0,88,-99.99,,,0.01,weatherlink.com 1.10,2013-02-07 13:52:00,
2013-02-07 08:07:00,35.2,32.0,29.95,SSE,153,0.0,-999.0,88,-99.99,,,0.01,weatherlink.com 1.10,2013-02-07 14:07:00,
2013-02-07 08:22:00,35.3,32.0,29.95,SSE,153,0.0,-999.0,88,-99.99,,,0.01,weatherlink.com 1.10,2013-02-07 14:22:00,
2013-02-07 08:37:00,35.4,32.0,29.95,SSE,152,0.0,-999.0,88,-99.99,,,0.01,weatherlink.com 1.10,2013-02-07 14:37:00,
2013-02-07 08:52:00,35.2,32.0,29.94,SE,138,2.0,-999.0,88,-99.99,,,0.01,weatherlink.com 1.10,2013-02-07 14:52:00,
2013-02-07 09:07:00,35.1,32.0,29.93,SE,139,0.0,-999.0,89,-99.99,,,0.01,weatherlink.com 1.10,2013-02-07 15:07:00,
2013-02-07 09:22:00,35.1,32.0,29.93,ESE,107,0.0,-999.0,89,-99.99,,,0.01,weatherlink.com 1.10,2013-02-07 15:22:00,
2013-02-07 09:37:00,35.1,32.0,29.91,SSE,167,2.0,-999.0,89,-99.99,,,0.01,weatherlink.com 1.10,2013-02-07 15:37:00,
2013-02-07 09:52:00,35.4,33.0,29.91,SSE,165,3.0,-999.0,89,-99.99,,,0.01,weatherlink.com 1.10,2013-02-07 15:52:00,
2013-02-07 10:07:00,35.7,33.0,29.90,SSE,159,3.0,-999.0,89,-99.99,,,0.01,weatherlink.com 1.10,2013-02-07 16:07:00,
2013-02-07 10:22:00,36.2,33.0,29.90,South,177,4.0,-999.0,88,-99.99,,,0.01,weatherlink.com 1.10,2013-02-07 16:22:00,
2013-02-07 10:37:00,36.5,33.0,29.90,South,177,6.0,-999.0,88,-99.99,,,0.01,weatherlink.com 1.10,2013-02-07 16:37:00,
2013-02-07 10:52:00,36.6,33.0,29.90,SE,136,4.0,-999.0,88,-99.99,,,0.01,weatherlink.com 1.10,2013-02-07 16:52:00,
2013-02-07 11:07:00,36.8,34.0,29.90,South,175,2.0,-999.0,88,-99.99,,,0.01,weatherlink.com 1.10,2013-02-07 17:07:00,
2013-02-07 11:22:00,36.9,34.0,29.89,South,180,0.0,-999.0,90,-99.99,,,0.01,weatherlink.com 1.10,2013-02-07 17:22:00,
2013-02-07 11:37:00,37.3,35.0,29.88,SSE,166,1.0,-999.0,91,-99.99,,,0.01,weatherlink.com 1.10,2013-02-07 17:37:00,
2013-02-07 11:52:00,37.7,36.0,29.86,SSE,166,0.0,-999.0,92,-99.99,,,0.01,weatherlink.com 1.10,2013-02-07 17:52:00,
2013-02-07 12:07:00,38.4,37.0,29.85,SSE,166,0.0,-999.0,93,-99.99,,,0.02,weatherlink.com 1.10,2013-02-07 18:07:00,
2013-02-07 12:22:00,39.0,37.0,29.84,South,174,1.0,-999.0,93,-99.99,,,0.04,weatherlink.com 1.10,2013-02-07 18:22:00,
2013-02-07 12:37:00,39.3,38.0,29.83,South,173,3.0,-999.0,93,-99.99,,,0.05,weatherlink.com 1.10,2013-02-07 18:37:00,
2013-02-07 12:52:00,39.3,38.0,29.82,South,181,2.0,-999.0,93,-99.99,,,0.06,weatherlink.com 1.10,2013-02-07 18:52:00,
2013-02-07 13:07:00,39.5,38.0,29.82,South,178,5.0,-999.0,93,-99.99,,,0.06,weatherlink.com 1.10,2013-02-07 19:07:00,
2013-02-07 13:22:00,39.6,38.0,29.82,South,179,0.0,-999.0,93,-99.99,,,0.07,weatherlink.com 1.10,2013-02-07 19:22:00,
2013-02-07 13:38:00,39.7,38.0,29.80,South,179,0.0,-999.0,94,-99.99,,,0.10,weatherlink.com 1.10,2013-02-07 19:38:00,
2013-02-07 13:52:00,39.9,38.0,29.80,South,180,2.0,-999.0,94,-99.99,,,0.11,weatherlink.com 1.10,2013-02-07 19:52:00,
2013-02-07 14:07:00,40.0,39.0,29.80,South,184,0.0,-999.0,94,-99.99,,,0.12,weatherlink.com 1.10,2013-02-07 20:07:00,
2013-02-07 14:22:00,40.1,39.0,29.79,South,182,0.0,-999.0,95,-99.99,,,0.14,weatherlink.com 1.10,2013-02-07 20:22:00,
2013-02-07 14:37:00,40.4,39.0,29.79,South,182,4.0,-999.0,95,-99.99,,,0.15,weatherlink.com 1.10,2013-02-07 20:37:00,
2013-02-07 14:52:00,40.4,39.0,29.79,South,171,1.0,-999.0,95,-99.99,,,0.15,weatherlink.com 1.10,2013-02-07 20:52:00,
2013-02-07 15:07:00,40.4,39.0,29.79,South,176,1.0,-999.0,95,-99.99,,,0.16,weatherlink.com 1.10,2013-02-07 21:07:00,
2013-02-07 15:22:00,40.3,39.0,29.79,South,176,0.0,-999.0,96,-99.99,,,0.17,weatherlink.com 1.10,2013-02-07 21:22:00,
2013-02-07 15:37:00,40.3,39.0,29.78,South,176,0.0,-999.0,96,-99.99,,,0.18,weatherlink.com 1.10,2013-02-07 21:37:00,
2013-02-07 15:52:00,40.1,39.0,29.77,South,176,0.0,-999.0,96,-99.99,,,0.20,weatherlink.com 1.10,2013-02-07 21:52:00,
2013-02-07 16:07:00,39.8,39.0,29.77,South,182,1.0,-999.0,96,-99.99,,,0.21,weatherlink.com 1.10,2013-02-07 22:07:00,
2013-02-07 16:22:00,39.5,39.0,29.77,South,183,0.0,-999.0,96,-99.99,,,0.23,weatherlink.com 1.10,2013-02-07 22:22:00,
2013-02-07 16:37:00,39.3,38.0,29.77,South,183,0.0,-999.0,96,-99.99,,,0.24,weatherlink.com 1.10,2013-02-07 22:37:00,
2013-02-07 16:52:00,39.2,38.0,29.78,South,183,0.0,-999.0,96,-99.99,,,0.25,weatherlink.com 1.10,2013-02-07 22:52:00,
2013-02-07 17:07:00,38.9,38.0,29.79,South,183,0.0,-999.0,96,-99.99,,,0.25,weatherlink.com 1.10,2013-02-07 23:07:00,
2013-02-07 17:22:00,38.7,38.0,29.80,South,183,0.0,-999.0,96,-99.99,,,0.27,weatherlink.com 1.10,2013-02-07 23:22:00,
2013-02-07 17:37:00,38.3,37.0,29.80,South,183,0.0,-999.0,96,-99.99,,,0.27,weatherlink.com 1.10,2013-02-07 23:37:00,
2013-02-07 17:52:00,38.0,37.0,29.81,South,184,0.0,-999.0,96,-99.99,,,0.27,weatherlink.com 1.10,2013-02-07 23:52:00,
2013-02-07 18:07:00,37.7,37.0,29.82,South,188,1.0,-999.0,96,-99.99,,,0.27,weatherlink.com 1.10,2013-02-08 00:07:00,
2013-02-07 18:22:00,37.4,36.0,29.82,South,188,0.0,-999.0,96,-99.99,,,0.28,weatherlink.com 1.10,2013-02-08 00:22:00,
2013-02-07 18:37:00,37.1,36.0,29.83,South,188,0.0,-999.0,96,-99.99,,,0.28,weatherlink.com 1.10,2013-02-08 00:37:00,
2013-02-07 18:52:00,37.1,36.0,29.83,SSW,207,0.0,-999.0,97,-99.99,,,0.28,weatherlink.com 1.10,2013-02-08 00:52:00,
2013-02-07 19:07:00,37.0,36.0,29.84,SSW,207,0.0,-999.0,97,-99.99,,,0.28,weatherlink.com 1.10,2013-02-08 01:07:00,
2013-02-07 19:22:00,36.7,36.0,29.84,SSW,213,0.0,-999.0,96,-99.99,,,0.28,weatherlink.com 1.10,2013-02-08 01:22:00,
2013-02-07 19:37:00,36.5,36.0,29.84,WSW,240,2.0,-999.0,97,-99.99,,,0.28,weatherlink.com 1.10,2013-02-08 01:37:00,
2013-02-07 19:52:00,36.4,36.0,29.84,WNW,284,2.0,-999.0,97,-99.99,,,0.28,weatherlink.com 1.10,2013-02-08 01:52:00,
2013-02-07 20:07:00,36.2,35.0,29.85,WNW,303,3.0,-999.0,96,-99.99,,,0.28,weatherlink.com 1.10,2013-02-08 02:07:00,
2013-02-07 20:22:00,36.0,35.0,29.85,WNW,294,6.0,-999.0,96,-99.99,,,0.28,weatherlink.com 1.10,2013-02-08 02:22:00,
2013-02-07 20:37:00,35.9,35.0,29.86,WNW,301,4.0,-999.0,96,-99.99,,,0.28,weatherlink.com 1.10,2013-02-08 02:37:00,
2013-02-07 20:52:00,35.6,35.0,29.87,WNW,300,5.0,-999.0,96,-99.99,,,0.28,weatherlink.com 1.10,2013-02-08 02:52:00,
2013-02-07 21:07:00,35.3,34.0,29.88,WNW,292,3.0,-999.0,96,-99.99,,,0.28,weatherlink.com 1.10,2013-02-08 03:07:00,
2013-02-07 21:22:00,35.1,34.0,29.88,NW,309,3.0,-999.0,95,-99.99,,,0.28,weatherlink.com 1.10,2013-02-08 03:22:00,
2013-02-07 21:37:00,34.8,34.0,29.89,NW,306,5.0,-999.0,96,-99.99,,,0.28,weatherlink.com 1.10,2013-02-08 03:37:00,
2013-02-07 21:52:00,34.6,33.0,29.89,WNW,290,5.0,-999.0,95,-99.99,,,0.28,weatherlink.com 1.10,2013-02-08 03:52:00,
2013-02-07 22:07:00,34.4,33.0,29.89,NW,315,6.0,-999.0,95,-99.99,,,0.28,weatherlink.com 1.10,2013-02-08 04:07:00,
2013-02-07 22:22:00,34.3,33.0,29.90,NW,309,4.0,-999.0,95,-99.99,,,0.28,weatherlink.com 1.10,2013-02-08 04:22:00,
2013-02-07 22:37:00,34.2,33.0,29.90,NNW,338,3.0,-999.0,95,-99.99,,,0.28,weatherlink.com 1.10,2013-02-08 04:37:00,
2013-02-07 22:52:00,34.1,33.0,29.90,NNW,328,2.0,-999.0,95,-99.99,,,0.28,weatherlink.com 1.10,2013-02-08 04:52:00,
2013-02-07 23:07:00,34.0,33.0,29.91,WNW,299,4.0,-999.0,95,-99.99,,,0.28,weatherlink.com 1.10,2013-02-08 05:07:00,
2013-02-07 23:22:00,33.9,33.0,29.91,WNW,290,4.0,-999.0,95,-99.99,,,0.28,weatherlink.com 1.10,2013-02-08 05:22:00,
2013-02-07 23:37:00,33.8,32.0,29.92,NW,312,6.0,-999.0,94,-99.99,,,0.28,weatherlink.com 1.10,2013-02-08 05:37:00,
2013-02-07 23:52:00,33.8,32.0,29.93,North,355,9.0,-999.0,94,-99.99,,,0.28,weatherlink.com 1.10,2013-02-08 05:52:00,